Temp
18 18 18 18 18 18 18 18 18 18 18 18 18 17 17 17 18 17 17 16 16 16 16 16 15 15 15 15 15 15 15 15 15 14 14 14 13 13 13 12 12 13 14 14 13 13 13 12 12 12 12 12 12 11 11 11 10 9 9 8 8 8 8 7 7 7 7 7 7
18 18 18 18 18 18 18 18 18 18 18 18 18 18 17 17 17 17 16 16 16 16 16 16 15 15 15 15 15 15 15 15 14 14 14 13 13 13 13 13 13 13 14 14 13 13 12 12 12 12 12 12 11 11 10 10 9 9 8 8 8 8 7 7 7 7 7 7 7
18 18 18 18 18 18 18 18 18 17 17 18 18 17 17 17 17 17 16 16 16 16 16 16 15 15 15 15 15 14 14 14 14 14 14 13 13 13 13 13 13 13 13 13 13 12 12 12 12 12 11 11 11 10 10 9 9 9 8 8 8 7 7 7 7 7 6 6 6
18 18 18 18 18 18 18 18 17 17 17 17 17 17 17 17 17 16 16 16 16 16 16 15 15 15 15 15 15 15 15 14 14 14 14 14 13 13 13 13 13 13 13 13 12 12 12 11 11 11 11 10 10 9 9 9 8 8 8 8 7 7 7 7 7 6 6 6 6
18 18 18 18 18 18 18 17 17 17 17 17 17 17 17 17 16 16 16 16 16 16 16 15 15 15 15 15 15 14 14 14 14 14 14 14 14 13 13 13 13 13 12 12 12 12 11 11 11 11 10 10 10 9 9 8 8 8 8 7 7 7 7 7 7 6 6 6 6
18 18 18 18 18 18 17 17 17 17 17 17 17 17 17 16 16 16 16 16 16 16 15 15 15 15 15 15 14 14 14 14 14 14 14 14 14 13 13 13 13 12 12 12 11 11 11 11 11 10 10 10 9 9 9 9 8 8 8 8 8 7 7 7 7 7 6 6 6
19 18 18 18 18 17 17 17 17 17 17 17 17 17 16 16 16 16 16 15 15 15 15 15 15 15 14 14 14 14 14 14 14 14 14 14 14 14 13 13 12 12 12 11 11 11 11 10 10 10 9 9 9 9 9 9 8 8 8 8 8 8 8 8 7 7 7 7 6
19 19 18 18 18 17 17 17 17 17 17 17 17 17 16 16 16 15 15 15 15 15 15 15 15 15 14 14 13 14 14 14 14 14 14 13 13 13 13 12 12 12 11 11 11 10 10 10 10 10 9 9 9 9 9 9 9 9 8 8 8 8 8 8 8 7 7 7 7
19 19 18 18 18 17 17 17 17 17 17 17 17 17 16 16 16 15 15 15 15 15 15 15 15 14 14 14 13 14 14 14 14 13 13 13 12 12 12 12 11 11 11 10 10 10 10 10 10 10 10 10 9 9 9 9 9 9 9 8 8 8 8 8 8 7 7 7 7
19 18 18 18 18 17 17 17 17 17 17 17 17 17 16 16 15 15 15 15 15 15 15 14 14 14 14 14 14 14 14 14 13 13 12 12 12 11 11 11 11 10 10 10 10 10 10 10 10 10 10 10 9 9 9 9 9 9 9 8 8 8 8 8 8 7 7 7 7
18 18 18 18 17 17 17 17 17 17 17 17 17 16 16 15 15 15 15 15 15 14 14 14 14 14 14 14 14 14 13 13 13 13 12 12 11 11 11 11 11 10 10 10 10 10 10 10 10 10 10 9 9 9 9 9 8 8 8 8 8 8 8 7 7 7 7 7 6
18 18 18 17 17 17 17 17 17 17 17 17 16 16 15 15 15 15 15 14 14 14 14 14 14 14 14 14 14 13 13 12 12 12 12 11 11 11 11 11 11 11 10 10 10 10 10 10 10 10 9 9 9 9 8 8 8 8 8 8 7 7 7 7 6 6 6 6 6
17 17 17 17 17 17 17 17 17 17 16 16 16 15 15 15 14 14 14 14 14 14 14 14 14 14 14 13 13 13 12 12 12 12 11 11 11 11 11 11 11 10 10 10 10 10 10 9 9 9 9 9 8 8 8 8 8 8 7 7 7 7 6 6 6 5 5 5 5
17 17 17 17 17 17 17 17 17 16 16 15 15 14 14 14 14 14 14 14 14 13 13 13 13 13 13 13 12 12 12 12 12 12 12 11 11 11 11 10 10 10 10 9 9 9 9 9 9 9 8 8 8 8 8 8 7 7 7 7 6 6 6 5 5 5 5 5 5
17 17 16 16 16 17 17 17 16 16 15 15 14 14 14 14 14 14 14 14 13 13 13 13 13 13 13 12 12 12 12 12 12 12 11 11 11 10 10 10 9 9 9 9 9 9 9 9 8 8 8 8 7 7 7 7 7 7 6 6 6 5 5 5 5 4 4 4 4
16 16 16 16 16 16 16 16 15 15 14 14 14 13 13 13 13 13 13 13 13 13 13 12 12 12 12 12 12 12 12 12 11 11 11 10 10 10 9 9 9 9 9 9 9 8 8 8 8 8 8 7 7 7 7 6 6 6 6 5 5 5 5 4 4 4 4 4 3
16 16 16 16 16 16 15 15 14 14 14 13 13 13 13 13 13 13 13 13 12 12 12 12 12 12 12 12 12 12 11 11 11 10 10 10 9 9 9 9 9 8 8 8 8 8 8 7 7 7 7 7 7 6 6 6 6 5 5 5 4 4 4 4 4 3 3 3 3
16 16 16 15 15 15 14 14 14 13 13 13 13 13 13 13 13 12 12 12 12 12 12 12 12 12 12 12 11 11 11 10 10 10 9 9 9 9 9 9 8 8 8 8 8 7 7 7 7 7 7 6 6 6 6 5 5 5 4 4 4 3 3 3 3 3 2 2 2
15 15 15 14 14 14 14 13 13 13 13 13 13 13 13 12 12 12 12 12 12 12 12 12 11 11 11 11 11 11 10 10 10 9 9 9 9 9 9 8 8 8 8 7 7 7 7 7 7 6 6 6 6 5 5 5 4 4 4 3 3 3 3 2 2 2 2 2 1
14 14 14 14 14 13 13 13 13 13 13 13 12 12 12 12 12 12 12 11 11 11 11 11 11 11 11 11 10 10 10 9 9 9 9 9 8 8 8 8 7 7 7 7 7 7 7 6 6 6 6 5 5 4 4 4 3 3 3 3 2 2 2 2 2 2 1 1 1
14 13 13 13 13 13 13 13 13 12 12 12 12 12 12 12 12 11 11 11 11 11 11 11 11 10 10 10 10 9 9 9 9 9 8 8 8 7 7 7 7 7 7 7 7 6 6 6 6 5 5 4 4 4 3 3 3 2 2 2 2 2 1 1 1 1 1 1 1
13 13 13 13 13 13 12 12 12 12 12 12 12 12 11 11 11 11 11 11 11 11 10 10 10 10 10 9 9 9 9 8 8 8 8 7 7 7 7 7 7 7 6 6 6 6 6 5 5 4 4 4 3 3 3 2 2 2 2 2 1 1 1 1 1 1 1 1 1
13 12 12 12 12 12 12 12 12 12 11 11 11 11 11 11 11 10 10 10 10 10 10 10 9 9 9 9 9 8 8 8 7 7 7 7 6 6 6 6 6 6 6 6 5 5 5 5 4 4 3 3 3 2 2 2 2 2 1 1 1 1 1 1 1 1 1 1 1
12 12 12 12 12 12 12 11 11 11 11 11 11 10 10 10 10 10 10 10 10 9 9 9 9 9 9 8 8 8 7 7 6 6 6 6 6 6 6 6 6 5 5 5 5 5 5 4 4 3 3 3 2 2 2 2 2 1 1 1 1 1 1 1 1 1 0 1 1
12 12 11 11 11 11 11 11 11 10 10 10 10 10 10 10 10 9 9 9 9 9 9 8 8 8 8 8 7 7 7 6 6 6 5 5 6 6 5 5 5 4 4 4 4 4 4 4 3 3 3 2 2 2 2 2 1 1 1 1 1 0 0 0 0 0 0 0 0
11 11 11 11 11 11 10 10 10 10 10 10 9 9 9 9 9 9 9 9 8 8 8 8 8 8 8 8 7 7 6 6 5 5 5 5 5 5 4 4 3 3 3 3 3 3 3 3 3 2 2 2 2 2 2 1 1 1 1 0 0 -0 -0 -0 -0 -0 -0 -0 -0
11 11 10 10 10 10 10 10 10 9 9 9 9 9 9 9 9 9 8 8 8 8 8 8 8 8 8 7 7 7 6 6 5 5 5 5 4 4 3 3 3 2 2 2 3 2 2 2 2 2 2 2 2 2 1 1 1 1 0 0 -0 -0 -1 -1 -1 -1 -1 -0 -0
10 10 10 10 10 10 9 9 9 9 9 9 9 9 8 8 8 8 8 8 8 8 8 7 7 7 7 7 7 6 6 5 5 5 5 4 4 3 3 2 2 2 2 2 2 2 2 2 2 2 2 2 2 1 1 1 1 0 -0 -0 -1 -1 -1 -1 -1 -1 -1 -1 -1
10 10 10 10 9 9 9 9 9 9 8 8 8 8 8 8 8 8 8 8 7 7 7 7 7 7 7 6 6 6 6 5 5 5 4 4 3 3 2 2 2 2 2 2 2 2 2 2 2 2 2 2 1 1 1 1 0 0 -0 -1 -1 -1 -1 -1 -1 -1 -1 -1 -1
10 10 9 9 9 9 9 9 8 8 8 8 8 8 8 8 8 7 7 7 7 7 7 7 7 7 6 6 6 5 5 5 4 4 4 3 3 2 2 2 2 1 2 2 1 1 1 1 2 2 2 1 1 1 1 0 0 -0 -0 -1 -1 -1 -1 -2 -1 -1 -1 -2 -2
9 9 9 9 9 8 8 8 8 8 8 8 8 8 8 7 7 7 7 7 7 7 7 7 6 6 6 6 5 5 5 4 4 4 3 3 2 2 2 1 1 1 1 1 1 1 1 1 1 1 1 1 1 1 1 0 0 -0 -0 -1 -1 -1 -1 -2 -2 -2 -2 -2 -2
9 9 9 9 8 8 8 8 8 8 8 8 8 7 7 7 7 7 7 6 6 6 6 6 6 6 5 5 5 5 4 4 4 3 3 2 2 2 1 1 1 1 1 1 1 1 1 1 1 1 1 1 1 1 0 0 -0 -0 -1 -1 -1 -1 -2 -2 -2 -2 -2 -2 -2
9 9 9 8 8 8 8 8 7 7 7 7 7 7 7 7 7 6 6 6 6 6 6 6 6 6 5 5 5 4 4 4 3 3 2 2 2 1 1 1 1 1 1 1 1 1 1 1 1 1 1 1 1 0 0 -0 -0 -0 -1 -1 -1 -1 -2 -2 -2 -2 -2 -2 -2
9 8 8 8 8 8 7 7 7 7 7 7 7 7 7 6 6 6 6 6 6 6 6 6 5 5 5 5 4 4 4 3 3 3 2 2 2 1 1 1 1 1 1 1 1 1 1 1 1 1 1 1 0 0 -0 -0 -0 -1 -1 -1 -1 -1 -2 -2 -2 -2 -3 -3 -3
8 8 8 8 7 7 7 7 7 7 7 7 6 6 6 6 6 6 6 5 5 5 5 5 5 5 5 4 4 4 3 3 3 2 2 2 1 1 1 0 0 1 1 1 1 1 1 1 1 1 0 0 0 -0 -0 -1 -1 -1 -1 -1 -1 -2 -2 -2 -2 -2 -3 -3 -3
8 8 8 7 7 7 7 7 7 7 6 6 6 6 6 6 6 5 5 5 5 5 5 5 5 4 4 4 4 3 3 3 2 2 2 2 1 1 0 0 0 0 0 1 0 0 0 0 0 0 -0 -0 -0 -0 -1 -1 -1 -1 -1 -1 -2 -2 -2 -2 -2 -3 -3 -3 -3
8 8 7 7 7 7 7 7 6 6 6 6 6 6 5 5 5 5 5 5 5 5 5 4 4 4 4 3 3 3 3 3 2 2 1 1 1 0 0 -0 -0 0 0 0 0 0 -0 -0 -0 -0 -0 -0 -0 -1 -1 -1 -1 -1 -1 -2 -2 -2 -2 -2 -3 -3 -3 -3 -3
8 8 7 7 7 6 6 6 6 6 6 5 5 5 5 5 5 5 5 5 5 5 4 4 4 4 3 3 3 3 3 2 2 1 1 1 1 0 -0 -0 -0 -0 -0 -0 -0 -0 -0 -0 -1 -1 -1 -1 -1 -1 -1 -2 -2 -2 -2 -2 -2 -2 -2 -3 -3 -3 -3 -3 -3
8 7 7 7 7 6 6 6 6 6 5 5 5 5 5 5 5 5 5 5 5 5 4 4 3 3 3 3 3 3 2 2 2 1 1 0 0 0 -0 -0 -1 -1 -1 -0 -0 -1 -1 -1 -1 -1 -1 -1 -1 -1 -2 -2 -2 -2 -2 -2 -3 -3 -3 -3 -3 -3 -4 -4 -4
7 7 7 7 7 6 6 6 6 6 5 5 5 5 5 5 4 4 5 5 5 4 4 3 3 3 3 2 2 2 2 1 1 1 0 0 -0 -0 -0 -1 -1 -1 -1 -1 -1 -1 -1 -1 -1 -1 -1 -1 -1 -2 -2 -2 -2 -2 -3 -3 -3 -3 -3 -3 -4 -4 -4 -4 -4
7 7 7 7 6 6 6 6 5 5 5 5 5 5 5 4 4 4 4 4 4 3 3 3 2 2 2 2 2 2 1 1 1 0 0 -0 -0 -1 -1 -1 -1 -1 -1 -1 -1 -1 -1 -1 -1 -2 -1 -1 -2 -2 -2 -2 -2 -3 -3 -3 -3 -3 -4 -4 -4 -4 -4 -5 -4
Height
793 794 795 796 797 798 800 800 802 803 804 805 805 806 807 808 809 809 810 810 811 812 812 813 813 814 814 815 815 816 817 817 818 819 819 820 820 820 821 821 822 822 823 823 824 824 824 824 824 824 824 823 823 823 823 824 824 824 824 824 824 824 824 824 825 825 824 824 824
792 793 794 795 797 798 799 800 801 802 803 804 805 806 807 808 808 809 809 810 811 811 812 813 813 814 814 815 815 816 817 817 818 818 819 820 820 820 821 821 822 822 823 823 823 824 824 824 824 823 823 823 823 823 823 824 824 824 824 824 824 824 824 824 824 824 824 824 824
791 793 794 795 796 797 798 799 800 802 803 804 805 805 806 807 808 809 809 810 810 811 812 813 813 814 814 815 816 816 817 818 819 819 820 820 820 821 821 821 821 822 822 823 823 823 823 823 823 823 823 823 823 823 823 824 824 824 824 824 824 824 824 824 824 824 824 823 823
790 792 793 794 795 796 798 799 800 801 802 803 804 805 806 807 808 808 809 810 810 811 812 813 813 814 814 815 815 816 817 818 818 819 819 820 820 820 821 821 822 822 822 823 823 823 823 823 823 823 823 823 823 823 824 824 824 824 824 824 824 824 824 824 824 823 823 823 823
790 791 792 794 795 796 797 798 800 801 802 803 804 805 806 807 807 808 809 810 810 811 812 812 813 813 814 815 815 815 816 817 818 819 819 820 820 820 821 821 822 822 822 822 822 822 823 823 823 823 823 823 823 824 824 824 824 824 824 824 824 824 824 824 823 823 823 823 823
789 790 792 793 794 795 797 798 799 800 802 803 804 805 806 806 807 808 809 810 811 811 812 812 813 813 814 814 815 815 816 817 818 819 819 820 820 820 820 821 821 822 822 822 822 822 823 823 823 823 823 824 824 825 825 825 825 825 825 825 824 824 824 824 823 823 823 823 822
789 790 791 793 794 795 796 798 799 800 801 802 803 805 805 806 807 807 808 809 810 811 812 812 812 813 813 814 814 815 816 817 818 819 819 820 820 820 820 820 821 821 822 822 822 823 823 823 823 824 824 825 825 825 825 825 825 825 825 825 825 824 824 824 823 823 823 822 822
789 790 791 792 794 795 796 797 799 800 801 802 803 804 805 805 806 807 808 809 810 811 811 812 813 813 813 814 814 815 816 818 818 819 819 820 820 820 820 820 821 821 822 822 823 823 823 824 824 824 825 825 825 825 825 825 825 825 825 825 825 824 824 824 823 823 823 823 823
788 790 790 792 793 795 796 797 798 799 800 802 803 804 805 805 806 807 808 809 810 811 811 811 812 812 813 814 815 816 817 818 818 819 819 819 820 820 820 821 821 822 822 823 823 824 824 824 825 825 825 825 825 825 825 825 825 825 825 825 825 825 824 824 824 824 824 823 823
788 789 790 792 793 795 796 797 798 799 800 801 802 803 804 805 806 807 808 809 810 810 810 810 811 812 813 814 815 816 817 818 818 818 819 819 820 820 820 821 822 822 823 823 824 824 824 825 825 825 825 825 826 825 825 825 825 825 825 825 825 825 825 825 824 824 824 823 823
787 789 790 792 793 795 796 797 798 799 800 801 802 803 804 804 805 807 808 809 809 809 810 810 811 812 814 815 815 816 817 817 818 818 819 819 820 820 821 822 823 823 823 824 824 825 825 825 825 825 826 826 826 825 825 825 825 825 825 825 825 824 824 824 824 823 823 823 823
787 789 790 792 793 795 796 797 798 799 800 801 802 802 803 805 805 806 807 808 808 809 810 811 812 813 814 815 815 816 817 817 818 819 819 820 821 821 822 823 823 824 824 824 825 825 825 825 825 825 825 825 825 825 825 825 825 825 825 825 824 824 824 824 824 823 823 823 822
787 789 790 792 793 794 796 797 798 799 800 800 802 803 804 805 805 806 806 807 808 809 810 811 812 813 814 815 816 816 817 818 818 819 820 821 821 822 823 823 823 824 824 824 824 824 825 825 825 825 825 825 825 825 825 825 825 825 825 824 824 824 824 824 823 823 823 822 822
788 789 790 792 793 794 796 797 798 799 800 800 802 803 803 804 805 806 807 807 808 810 810 811 812 813 814 815 816 817 818 819 819 820 820 821 822 822 822 823 823 823 824 824 824 824 824 824 825 825 825 825 825 825 825 825 825 825 824 824 824 824 824 823 823 823 822 822 822
788 789 790 792 793 795 796 797 798 798 799 800 802 803 803 804 805 806 807 808 809 810 811 812 813 814 815 816 817 818 819 819 820 820 820 821 821 821 822 822 823 823 823 824 824 824 824 825 825 825 825 825 825 825 825 825 825 824 824 824 824 824 823 823 823 822 822 822 822
788 789 790 792 793 795 795 796 797 798 799 800 801 802 803 805 805 806 807 808 809 810 811 812 813 815 816 817 817 818 818 818 819 819 820 820 821 821 822 822 823 823 823 824 824 824 824 825 825 825 825 825 825 825 825 825 824 824 824 824 824 824 823 823 823 823 822 822 822
788 790 791 792 793 794 795 795 796 798 799 800 801 803 804 805 806 807 808 808 809 810 811 812 813 814 815 815 816 817 817 818 819 819 820 820 821 821 822 822 823 823 823 824 824 824 824 825 825 825 825 825 825 825 825 825 824 824 824 824 824 824 823 823 823 823 822 822 822
789 790 791 792 792 793 794 795 797 798 799 800 802 803 805 805 806 807 808 809 809 810 811 812 813 814 815 815 816 817 817 818 819 819 820 821 821 821 822 822 823 823 824 824 824 824 825 825 825 825 825 825 825 825 825 825 824 824 824 824 824 824 824 823 823 823 823 822 822
789 790 790 791 792 793 794 796 797 798 800 801 802 804 805 806 806 807 808 809 809 810 811 812 813 814 815 815 816 817 818 818 819 820 820 821 821 822 822 823 823 824 824 824 825 825 825 825 825 825 825 825 825 825 825 825 825 825 824 824 824 824 824 824 824 823 823 823 823
788 789 790 791 792 793 795 796 797 799 800 801 802 804 805 806 806 807 808 809 810 810 811 812 813 814 815 816 817 817 818 819 819 820 820 821 822 822 823 823 824 824 825 825 825 825 825 825 825 825 825 825 825 825 825 825 825 825 825 825 824 824 824 824 824 824 824 824 823
788 789 790 791 792 794 795 796 797 799 800 801 802 803 805 805 806 807 808 809 810 810 811 813 814 815 815 816 817 818 818 819 820 820 821 821 822 823 823 824 824 824 825 825 825 825 825 825 825 825 825 825 825 825 825 825 825 825 825 825 825 825 825 825 825 825 824 824 824
788 790 790 792 793 794 795 796 797 799 800 801 802 804 805 805 806 807 808 809 810 811 812 813 814 815 816 816 817 818 819 820 820 820 821 822 822 823 824 824 824 825 825 825 825 825 825 825 825 825 825 825 825 825 825 825 825 825 825 825 825 825 825 825 825 825 825 824 824
789 790 791 792 793 794 795 796 797 799 800 801 803 804 805 806 807 808 809 810 810 811 813 814 815 815 816 817 818 818 819 820 820 821 821 822 823 823 824 824 824 825 825 825 825 825 825 825 825 825 825 825 826 826 826 826 826 826 826 826 826 826 826 826 825 825 825 825 824
789 790 791 792 793 794 795 796 798 799 800 802 803 804 805 806 807 808 809 810 811 812 813 815 815 816 817 818 819 819 819 820 820 821 822 822 823 824 824 824 825 825 825 825 826 826 826 826 826 826 826 826 826 826 826 826 826 826 826 826 826 826 826 825 825 825 825 824 824
789 790 791 792 793 795 795 797 798 800 801 802 804 805 805 807 808 809 810 811 812 813 815 815 817 817 818 819 819 820 820 820 820 821 822 823 823 824 824 824 825 825 825 826 826 826 826 826 826 826 826 826 827 827 827 827 827 827 827 827 826 826 826 825 825 825 825 824 824
789 790 791 792 794 795 796 797 799 800 801 803 804 805 806 807 808 809 810 812 813 814 815 816 817 818 819 820 820 820 820 821 821 821 822 823 824 824 824 825 825 825 826 826 827 827 827 826 826 826 827 827 827 827 827 827 827 827 827 827 827 826 826 825 825 825 825 824 824
789 790 791 792 794 795 796 798 799 800 802 803 804 805 806 807 809 810 811 812 814 815 816 816 817 818 819 819 820 820 820 821 821 822 823 823 824 824 825 825 825 826 826 827 827 827 827 827 827 827 827 827 827 827 827 827 827 827 827 827 827 826 826 826 825 825 825 824 824
789 790 791 793 794 795 797 798 800 801 802 803 804 805 807 808 809 810 811 813 814 815 816 817 817 818 819 819 820 820 821 821 822 823 823 824 824 825 825 826 826 827 827 827 827 827 827 827 828 828 828 828 828 828 828 828 828 828 828 827 827 827 826 826 825 825 825 825 824
789 790 791 793 794 796 797 799 800 801 802 804 805 806 807 808 810 810 812 813 814 815 816 817 818 818 819 820 820 821 821 822 822 823 823 824 825 825 826 826 827 827 828 828 828 828 828 828 828 828 828 828 828 828 828 828 828 828 828 827 827 827 826 826 826 825 825 825 825
789 790 791 793 795 796 798 799 800 801 803 804 805 806 807 809 810 811 812 813 814 815 816 817 817 818 819 820 820 821 822 822 823 823 824 824 825 825 826 827 827 828 828 828 828 828 828 828 829 829 829 829 829 829 829 828 828 828 828 828 827 827 827 826 826 826 825 825 825
789 790 791 793 795 796 798 800 801 802 803 804 805 806 808 809 810 811 812 814 815 815 816 817 818 818 819 820 821 822 822 823 824 824 824 825 825 826 827 827 828 828 829 829 829 829 829 829 829 829 829 830 829 829 829 829 829 829 828 828 828 827 827 827 826 826 826 825 825
789 790 792 793 795 797 798 800 801 802 803 805 805 807 808 809 810 812 813 814 815 816 816 817 818 819 820 820 821 822 823 824 824 825 825 825 826 826 827 828 828 829 829 829 829 829 829 829 830 830 830 830 830 829 829 829 829 829 829 828 828 828 827 827 827 826 826 826 825
789 790 792 793 795 797 799 800 801 802 803 805 806 807 808 810 811 812 813 814 815 816 817 817 818 819 820 821 822 823 824 824 825 825 825 826 826 827 827 828 829 829 830 830 830 830 830 830 830 830 830 830 830 829 829 829 829 829 829 829 828 828 828 827 827 827 827 826 826
789 790 792 794 795 797 798 800 801 802 804 805 806 808 809 810 811 812 814 815 815 816 817 818 819 819 820 821 822 823 824 825 825 825 826 826 827 827 827 828 829 830 830 830 830 830 830 830 830 830 830 830 830 830 830 830 830 830 829 829 829 829 828 828 828 827 827 827 826
789 790 792 794 795 797 798 800 801 802 804 805 806 808 809 810 811 812 814 815 815 816 817 818 819 820 821 822 822 823 824 825 825 826 826 826 827 827 828 828 829 830 830 830 830 830 830 830 830 830 830 830 830 830 830 830 830 830 830 830 829 829 829 828 828 828 828 827 827
789 790 792 793 795 797 798 800 801 802 804 805 806 808 809 810 811 813 814 815 815 816 817 819 820 820 821 822 823 824 825 825 825 826 826 827 827 827 828 829 830 830 830 830 830 830 830 830 830 830 830 830 830 830 830 830 830 830 830 830 830 829 829 829 829 828 828 828 827
789 790 791 793 795 796 798 799 800 802 804 805 807 808 809 810 812 813 814 815 815 816 818 819 820 820 821 823 824 825 825 825 825 826 826 827 827 828 828 829 830 830 830 831 831 831 830 830 830 830 830 830 830 830 830 830 830 830 830 830 830 830 829 829 829 829 828 828 828
789 790 791 793 794 796 798 799 800 802 804 805 807 808 809 810 812 813 814 815 815 816 818 819 820 821 822 823 824 825 825 826 826 826 827 827 828 828 829 829 830 830 831 831 831 831 831 831 830 830 830 830 830 830 830 830 830 830 830 830 830 830 830 829 829 829 828 828 828
789 790 791 793 794 796 797 799 800 802 803 805 807 808 810 810 812 813 815 815 816 816 818 819 820 821 822 823 824 825 825 826 826 827 827 828 828 829 829 830 830 831 831 831 831 831 831 831 831 830 830 830 830 830 830 830 830 830 830 830 830 830 830 830 829 829 828 828 828
789 790 791 793 794 795 797 799 800 802 803 805 806 808 810 811 812 813 815 816 816 817 818 819 820 821 822 823 824 825 825 826 827 827 828 828 829 829 830 830 830 831 831 832 832 832 831 831 831 831 830 830 830 830 830 830 830 830 830 830 830 830 830 830 829 829 828 828 828
789 790 792 793 794 795 797 799 800 802 804 805 806 808 809 811 812 813 815 816 817 818 818 819 820 822 823 823 824 825 825 826 827 828 828 829 829 830 830 830 831 831 832 832 832 832 832 832 831 831 831 830 830 830 830 830 830 830 830 830 830 830 830 830 829 829 828 828 827
Wind_Speed
18 18 18 17 17 16 16 16 15 14 13 12 12 12 12 12 12 12 13 13 12 10 7 6 6 6 6 6 7 7 6 5 4 3 3 3 3 4 5 5 4 2 1 1 3 4 4 4 4 5 6 7 7 7 7 5 4 4 4 4 5 5 6 6 5 5 5 5 6
18 18 18 17 17 16 15 15 14 14 13 12 12 11 11 11 11 11 12 13 11 9 8 7 7 7 8 8 8 7 5 4 3 3 4 4 5 5 5 4 2 1 3 5 5 5 5 5 5 5 6 5 5 5 3 2 1 2 4 4 4 5 5 6 5 5 5 6 6
19 18 18 17 17 16 15 15 14 14 13 12 11 11 11 10 10 11 12 12 10 9 9 10 10 11 11 11 10 9 8 6 7 7 7 7 6 5 4 3 2 3 5 5 6 6 6 5 5 4 3 3 3 4 4 3 3 3 3 4 5 5 6 6 6 6 7 8 8
19 18 18 17 17 16 15 15 14 14 13 11 11 11 11 10 10 11 11 11 9 9 9 11 12 13 13 12 12 11 11 10 11 11 11 9 8 6 4 2 3 4 5 6 6 6 5 4 3 3 4 5 6 7 6 5 5 5 5 5 5 5 6 7 8 8 8 8 9
19 18 18 18 17 16 15 15 14 14 13 12 11 11 11 11 11 11 11 10 9 9 10 11 12 12 11 11 11 11 11 11 11 11 10 8 6 4 3 3 4 5 6 6 6 5 3 2 3 4 6 7 7 6 5 4 4 4 4 4 4 5 6 7 8 8 8 8 9
19 18 18 18 18 17 16 15 15 14 13 12 12 11 11 11 11 11 11 11 10 10 11 11 10 9 9 9 9 10 10 10 10 8 6 4 3 2 3 4 5 5 5 5 4 2 1 3 5 6 7 6 5 4 2 1 2 2 2 2 3 5 7 8 7 7 7 8 9
19 18 18 18 18 17 16 15 15 14 14 13 12 12 12 12 12 12 12 12 12 11 11 10 9 8 9 9 9 9 9 9 7 4 2 1 2 2 3 4 4 3 3 1 1 3 4 5 6 6 5 4 3 2 1 0 1 2 2 3 4 6 7 7 6 7 8 8 9
18 18 18 18 18 17 16 16 15 15 14 14 13 13 13 12 12 12 12 12 12 11 10 11 11 11 11 11 9 8 7 5 3 1 1 1 2 3 3 3 3 3 4 5 6 6 5 4 4 4 3 2 3 2 1 1 2 3 3 3 5 7 8 8 7 7 7 8 8
17 17 18 18 18 17 16 16 15 15 15 14 14 14 14 14 14 13 12 11 10 10 11 12 13 13 12 11 9 7 4 2 1 2 2 4 5 5 6 6 6 7 7 7 6 5 4 3 3 3 3 3 3 2 1 2 4 5 5 4 5 6 7 7 6 6 7 7 8
17 17 18 18 18 17 16 15 15 15 14 14 14 14 15 15 15 14 13 12 12 12 13 13 13 12 11 10 8 6 3 2 2 3 6 7 8 9 9 9 8 8 7 6 5 5 4 4 5 4 4 3 3 2 2 4 5 6 6 6 6 5 5 5 5 6 7 7 7
17 18 18 18 18 17 16 15 14 14 14 14 14 15 16 16 16 15 14 14 14 14 13 12 11 10 9 7 5 4 4 4 5 6 8 10 10 10 9 9 8 8 7 7 6 6 6 6 5 5 4 4 4 4 4 5 5 5 6 6 5 5 5 6 6 6 7 7 8
17 18 18 18 17 17 16 15 14 14 14 14 15 15 16 16 16 15 15 14 14 14 13 11 10 8 7 5 5 6 7 8 9 9 10 10 10 10 9 9 9 9 8 8 7 7 6 6 6 6 6 6 5 5 5 5 4 5 5 5 5 5 6 7 7 7 7 7 7
18 18 18 17 17 17 16 15 14 14 14 15 15 16 16 16 16 15 15 14 14 13 11 9 8 7 6 7 8 9 10 11 11 11 11 11 11 11 11 11 10 10 9 9 8 7 7 7 7 7 6 6 5 4 4 3 4 4 4 4 5 6 6 7 8 8 7 7 7
18 17 18 18 17 17 16 15 15 14 15 16 16 17 17 16 15 14 14 13 12 11 10 9 9 9 9 10 11 12 12 12 12 12 13 13 13 13 12 12 11 10 9 8 7 7 7 7 6 5 5 5 5 4 4 4 4 4 4 5 5 6 6 6 7 7 7 7 7
18 18 18 18 18 17 16 15 15 15 16 17 17 17 17 16 14 13 12 12 12 12 12 13 13 13 12 12 13 13 13 14 14 15 15 15 14 14 13 12 11 10 9 8 6 6 5 5 4 4 4 4 4 4 4 5 5 5 6 6 6 6 6 6 6 7 8 8 8
19 18 18 18 18 17 16 16 17 17 18 18 18 17 16 14 13 12 12 13 13 15 16 16 16 15 14 14 15 15 16 16 16 15 15 14 14 13 12 12 11 10 8 7 6 5 5 5 5 5 5 5 5 5 6 6 6 7 8 8 8 7 7 7 8 8 9 9 9
19 19 19 18 18 17 17 18 18 19 19 19 18 16 15 14 13 13 14 15 16 17 18 18 17 17 17 17 17 17 17 17 16 15 14 13 12 12 11 11 11 10 8 7 7 7 7 7 7 7 6 6 6 6 7 7 7 8 9 9 9 9 9 10 10 10 10 10 10
20 19 19 19 18 19 19 19 19 19 19 18 17 16 16 16 16 16 16 16 17 18 18 18 17 17 17 17 17 16 16 16 15 14 13 12 11 11 11 11 10 9 8 8 8 8 9 9 8 8 8 8 7 7 7 8 9 10 10 11 11 11 11 12 12 12 12 12 11
20 20 19 19 19 20 20 20 19 19 18 18 17 17 17 17 17 18 18 17 17 17 17 17 17 16 16 16 16 15 15 15 14 13 12 11 10 10 10 10 10 9 9 9 9 9 9 9 9 9 9 9 9 9 9 9 10 11 12 12 12 13 13 14 14 14 13 12 12
20 20 20 20 20 20 20 20 20 19 19 18 18 18 18 18 18 18 18 18 17 16 16 16 16 16 15 15 15 15 14 13 13 13 12 11 11 11 11 11 11 10 10 10 10 10 10 10 10 10 10 10 10 10 11 11 12 12 13 13 14 14 15 15 15 14 13 12 12
20 21 21 21 21 21 21 20 20 20 20 20 19 19 19 19 19 19 18 18 17 16 16 16 16 16 16 15 15 15 15 13 13 13 13 12 13 13 13 12 12 12 11 11 11 11 11 11 10 11 11 11 11 12 12 12 12 13 14 14 14 14 14 14 14 14 13 12 11
21 21 21 21 21 21 21 21 21 20 20 20 20 20 20 19 19 19 18 18 17 17 17 17 17 17 17 16 16 16 15 14 14 13 13 14 14 14 13 12 12 12 12 13 13 12 12 11 11 11 12 12 12 12 12 12 12 12 13 13 14 13 13 13 12 12 12 12 11
22 22 22 21 21 21 21 21 21 21 21 21 20 20 20 20 20 19 18 18 18 18 19 19 18 18 17 17 16 16 16 15 15 14 14 14 14 13 12 12 12 13 14 14 14 13 12 12 12 12 12 12 12 12 12 12 11 11 12 12 12 12 12 11 11 11 11 11 11
23 23 22 22 22 22 22 22 22 21 21 21 21 21 21 20 20 20 20 20 20 20 20 20 19 18 18 17 16 16 16 16 16 15 14 14 13 13 12 12 13 14 15 15 14 13 12 11 12 12 12 12 11 11 11 11 11 11 11 11 11 10 10 10 10 11 11 10 11
24 23 23 23 23 22 22 22 23 23 22 22 22 22 22 21 21 21 22 22 22 22 22 21 20 20 19 18 18 18 17 17 16 15 14 14 13 13 13 14 15 15 15 15 14 13 12 11 11 11 11 11 10 10 10 10 10 10 11 11 10 10 10 10 10 10 10 10 10
24 24 24 24 24 23 24 24 24 24 24 23 23 23 23 23 23 23 24 24 24 23 23 22 22 21 20 20 20 19 18 17 16 14 14 14 14 14 15 16 16 16 15 15 14 14 13 12 11 11 11 10 10 10 10 10 10 10 10 11 10 10 10 11 11 11 10 10 10
25 25 25 25 25 25 25 25 25 25 25 24 24 24 24 24 24 25 25 25 24 23 23 22 22 21 21 21 20 19 18 16 15 13 13 13 14 16 16 17 17 16 15 15 14 14 14 13 12 11 11 10 10 9 9 9 9 10 10 11 10 10 11 12 13 13 11 10 11
26 26 26 26 26 26 26 26 26 26 26 25 25 25 25 25 25 25 25 24 24 23 22 22 21 21 21 20 20 18 17 15 14 13 13 14 15 16 17 17 16 16 15 14 15 14 14 13 13 12 11 10 10 9 9 9 9 10 10 11 11 11 12 13 14 14 13 12 12
27 27 27 27 27 27 27 27 27 26 26 26 26 25 25 25 25 25 24 24 23 22 22 22 21 21 21 20 19 18 16 15 14 13 13 14 15 16 17 16 16 15 14 14 14 14 14 13 13 12 11 11 10 9 9 9 10 10 11 11 11 11 12 14 15 14 13 13 13
27 28 28 28 28 27 27 27 27 26 26 26 26 25 25 25 24 24 24 23 23 22 22 21 21 21 21 20 19 18 17 15 14 14 14 15 16 16 16 16 16 15 14 14 14 14 13 13 12 12 11 11 10 9 9 10 10 11 11 11 11 11 12 14 15 14 13 13 14
28 28 28 28 28 28 27 27 26 26 26 26 25 25 25 24 24 24 23 23 22 22 22 22 22 22 21 20 20 19 18 16 15 14 15 16 17 17 16 16 15 15 14 14 14 13 13 12 11 11 11 10 10 9 10 10 11 11 11 11 11 12 13 14 15 15 14 14 14
28 29 29 29 28 28 27 27 26 26 26 25 25 25 25 24 24 23 23 23 22 22 22 22 22 22 21 21 20 19 18 17 16 16 16 17 17 17 16 16 15 14 14 13 13 13 12 12 11 10 10 10 9 9 9 10 10 11 11 11 11 12 12 14 15 15 14 15 15
29 29 29 29 28 28 27 26 26 26 26 25 25 25 25 25 24 24 23 22 22 22 21 21 22 22 22 21 21 20 19 18 18 17 17 17 17 17 16 16 15 14 13 13 13 13 12 11 11 10 10 9 8 8 9 10 10 11 11 11 11 11 12 13 14 15 15 15 15
29 29 29 29 28 27 27 26 26 26 26 26 26 26 26 25 25 24 23 22 22 21 21 21 21 21 21 21 21 20 20 19 18 18 17 17 17 16 16 16 15 14 13 13 13 12 12 11 11 10 9 8 7 7 8 10 10 10 10 10 10 10 11 12 13 14 15 15 14
29 30 29 29 28 28 27 27 27 27 27 27 27 26 26 25 25 24 23 22 22 22 21 21 21 21 21 20 20 20 19 18 17 16 16 15 15 16 16 16 15 14 13 13 13 12 12 12 11 10 9 7 7 7 9 10 10 10 10 10 10 10 10 11 12 13 14 14 14
30 30 30 29 28 28 28 27 28 28 28 27 27 26 25 25 24 23 23 22 22 22 22 21 21 21 21 20 19 19 18 17 17 16 15 14 15 16 17 16 15 14 13 13 13 12 12 11 11 10 8 7 7 8 9 10 10 9 9 9 10 10 10 10 11 11 12 13 14
29 30 30 29 29 28 28 28 28 28 28 28 27 26 25 25 24 23 22 22 23 23 22 22 22 22 21 21 20 19 17 17 16 16 15 15 15 16 16 16 16 15 14 13 13 12 12 11 10 9 7 7 7 8 9 10 9 9 9 9 9 9 9 10 10 10 11 12 13
29 30 30 30 29 29 29 29 29 29 29 28 27 26 25 24 24 23 22 22 23 24 23 23 23 22 22 21 20 19 18 17 16 16 16 15 15 15 16 16 16 15 14 13 13 13 12 12 10 9 7 7 8 9 9 9 8 8 9 9 9 9 9 9 9 9 9 10 12
29 29 30 30 30 29 29 29 29 29 29 28 27 26 25 24 23 22 22 21 22 24 24 24 24 23 22 21 21 20 19 17 16 16 16 15 15 15 15 16 16 15 14 14 13 13 13 12 11 9 8 8 9 9 8 8 8 8 9 9 9 9 9 9 9 9 8 9 10
28 29 29 30 30 30 30 30 29 29 29 28 27 26 25 24 23 22 22 22 22 23 24 24 24 23 22 22 21 21 20 19 17 17 16 16 15 14 14 15 16 15 15 14 14 14 13 13 12 10 10 9 9 9 8 8 8 9 9 9 9 9 9 8 8 8 8 9 9
28 29 29 29 30 30 30 30 30 29 29 28 27 26 25 24 23 23 22 22 23 24 24 24 24 23 22 22 22 21 21 20 18 17 16 16 15 14 14 15 15 16 15 14 14 14 14 13 13 12 11 10 10 9 9 9 9 9 9 9 9 9 8 8 8 8 9 9 10
Wind_Direction
186 186 187 187 188 188 187 186 184 181 179 179 180 180 181 183 184 179 174 174 178 178 172 163 162 158 149 138 132 131 133 135 133 129 126 127 122 122 127 138 157 187 237 328 335 326 313 298 284 272 265 261 259 259 261 269 286 303 307 304 300 300 303 306 308 308 307 307 307
185 185 185 186 187 187 186 184 181 178 177 179 180 178 177 179 177 168 163 167 169 164 153 148 151 150 142 131 126 124 126 130 131 129 126 123 114 111 115 128 163 280 317 326 319 307 295 285 276 268 264 265 271 276 285 309 331 322 313 313 321 328 334 337 339 337 330 321 313
183 183 183 183 184 185 183 180 176 174 174 175 175 174 173 174 169 162 159 163 163 157 149 148 150 149 145 140 137 136 136 136 140 140 140 140 140 144 154 177 238 300 315 310 299 290 286 286 286 288 294 319 348 10 24 28 14 352 344 353 359 357 351 346 340 333 326 320 317
182 181 180 181 182 181 179 176 173 171 170 169 168 167 168 170 164 161 161 162 158 153 150 150 151 152 151 151 152 152 152 151 151 151 152 155 159 167 182 215 261 283 287 283 279 279 284 297 319 349 13 26 32 35 33 25 18 15 14 11 6 354 341 334 330 328 325 323 322
181 180 179 178 178 177 175 172 170 169 169 167 165 165 165 165 161 159 158 154 148 147 150 151 151 153 156 159 161 162 162 162 159 157 156 158 164 176 203 239 254 258 261 264 268 274 292 337 10 24 32 38 43 43 35 20 14 15 15 8 354 339 332 331 330 328 327 325 326
180 179 178 176 174 172 171 169 169 168 168 166 165 164 163 160 158 156 152 146 145 147 148 148 147 150 154 159 161 162 162 162 159 156 156 162 178 206 230 235 237 241 246 250 256 275 13 34 37 38 41 46 55 60 50 15 14 12 359 337 325 325 328 330 328 324 323 326 331
179 177 175 172 170 168 167 166 167 167 167 166 165 165 163 159 157 154 152 151 151 151 148 142 138 140 147 153 155 157 158 157 152 145 135 159 202 215 216 215 215 215 214 195 100 70 56 48 51 55 57 58 73 91 103 318 350 353 342 327 322 324 327 329 323 321 325 331 337
177 175 172 168 166 164 163 163 164 165 165 165 166 166 164 160 156 153 153 156 157 153 145 135 131 134 140 143 143 144 145 146 138 105 72 134 170 174 170 158 140 118 99 87 82 80 76 70 70 77 82 72 74 86 87 353 351 354 349 330 321 327 333 336 332 332 336 341 344
174 171 167 164 162 160 160 160 162 162 163 165 167 166 163 157 152 149 149 150 149 143 137 135 136 138 138 134 128 122 116 100 49 50 87 113 120 118 110 102 94 89 87 87 91 97 101 94 80 78 75 67 70 73 49 358 360 2 360 351 344 348 354 359 358 358 358 357 353
167 164 161 159 158 157 157 158 159 161 162 163 164 162 156 150 145 142 141 140 139 137 136 139 141 140 136 128 120 113 105 85 64 77 89 95 96 95 94 94 95 97 98 99 100 96 85 74 72 73 74 71 69 54 26 17 19 21 20 18 18 23 27 25 19 14 8 1 356
159 157 156 155 154 154 153 153 154 156 157 157 155 151 146 142 139 138 138 140 139 137 138 140 142 141 137 130 127 127 127 118 103 94 91 91 92 95 98 102 105 105 102 95 89 82 78 78 81 83 85 82 76 64 54 49 47 46 44 41 38 34 28 20 12 6 1 357 357
152 151 151 151 151 150 149 148 147 146 146 144 142 138 136 136 136 137 138 138 137 136 136 138 141 141 138 132 128 123 117 110 104 99 96 97 100 102 103 104 103 100 97 94 93 94 95 95 94 93 91 87 82 74 69 67 65 60 55 48 39 32 26 21 17 13 9 7 12
150 149 148 148 147 146 145 142 141 139 137 135 134 131 130 132 136 137 136 135 135 135 134 134 133 128 120 115 111 109 107 105 103 103 104 106 106 105 105 104 103 103 103 105 107 109 109 104 101 98 94 87 79 71 62 56 53 51 47 41 35 33 32 31 29 25 21 20 24
149 147 146 144 144 142 141 140 140 138 135 133 130 128 128 131 135 138 138 136 133 130 125 117 109 103 100 101 104 106 108 109 110 111 111 111 111 109 108 106 107 108 109 110 112 112 110 107 106 103 94 83 72 59 46 37 36 36 33 29 29 32 35 35 31 26 22 21 23
146 145 143 142 141 141 141 141 139 137 135 132 128 127 128 131 135 139 139 134 128 119 111 104 100 99 100 104 110 114 117 117 117 116 114 113 112 111 110 107 106 108 109 107 109 108 104 102 103 98 88 77 65 53 41 35 34 31 28 26 24 26 26 24 20 16 16 17 19
141 140 140 139 140 141 140 138 135 133 131 129 128 127 126 127 131 134 133 128 122 117 112 110 110 112 115 117 119 120 119 118 117 116 114 113 113 113 112 110 107 107 107 105 103 99 94 89 86 81 75 70 62 53 44 37 33 31 29 26 24 22 20 17 15 14 15 17 21
137 138 139 140 140 139 136 133 131 129 128 128 128 126 124 122 123 124 125 124 124 122 122 122 124 124 124 124 123 122 121 119 118 116 115 116 117 119 118 117 115 114 113 109 103 95 89 83 78 73 69 64 59 52 45 36 32 30 28 26 25 26 25 24 24 24 25 26 28
135 137 138 139 137 135 133 131 129 127 127 127 127 125 123 121 121 121 123 126 129 129 128 128 130 130 128 127 126 125 124 122 121 120 120 122 124 125 125 124 122 120 116 109 99 91 83 77 72 66 62 59 55 50 43 37 34 32 32 32 33 35 36 36 36 35 35 34 32
135 136 136 135 134 133 132 129 127 125 124 125 125 124 124 124 124 125 126 128 131 133 133 132 131 131 130 128 126 125 125 124 124 124 125 126 126 126 124 122 118 113 106 98 90 83 77 71 66 62 59 57 54 49 44 40 37 37 38 40 43 44 44 43 41 41 40 38 32
134 134 134 134 133 132 130 129 127 126 125 126 127 127 128 129 130 129 128 129 132 134 135 134 131 129 129 128 127 125 124 125 127 127 125 122 120 117 115 113 109 102 95 88 82 77 71 66 63 60 58 57 54 51 47 43 42 42 44 47 49 48 46 42 40 39 39 37 30
132 132 133 134 133 132 131 130 130 130 130 130 131 132 132 133 132 130 128 129 131 132 132 131 130 129 129 129 127 125 124 125 124 122 119 115 111 109 108 106 102 96 89 81 74 69 65 62 61 60 59 57 55 53 50 48 46 46 48 51 53 50 45 40 36 34 34 34 29
132 133 134 134 134 134 133 133 134 134 134 134 134 135 134 133 131 129 129 130 130 129 129 129 129 129 129 128 127 124 122 120 117 114 111 109 107 105 103 100 96 89 81 73 66 62 61 62 62 63 61 58 55 54 53 53 51 49 50 52 54 52 47 42 36 31 29 30 30
133 134 134 135 135 135 135 136 136 136 135 134 134 134 133 131 129 129 129 129 128 127 126 126 126 126 125 125 123 120 117 113 110 108 106 104 102 100 97 93 87 79 72 66 62 60 62 65 69 69 66 62 58 56 56 57 55 53 52 52 54 53 49 45 40 33 29 28 29
134 134 134 135 135 136 136 136 136 135 133 132 131 131 129 128 128 128 127 126 124 122 121 120 119 118 117 115 113 111 108 107 105 104 102 100 97 93 89 84 77 72 67 63 60 60 63 69 75 76 73 68 63 60 59 59 58 55 52 51 50 49 47 43 39 33 29 28 30
135 134 134 134 134 135 135 135 134 132 131 130 130 129 127 126 126 125 124 121 119 117 116 114 113 112 110 108 107 106 105 106 106 105 102 97 92 87 82 77 72 68 64 61 59 60 63 69 77 80 79 73 69 65 63 61 58 55 51 49 46 42 38 33 30 27 27 29 32
134 133 133 133 133 133 133 132 131 130 130 129 128 127 126 125 125 124 122 119 117 116 115 114 113 113 112 111 111 110 110 110 110 107 103 97 90 84 79 75 71 67 63 60 59 60 63 68 75 79 80 76 73 70 67 63 58 54 50 46 42 37 30 24 20 20 24 31 35
133 132 132 133 133 132 131 131 131 130 129 129 128 127 126 126 125 123 121 119 118 118 117 117 117 117 117 117 116 115 114 113 112 108 102 96 90 85 81 77 73 68 63 59 58 60 64 68 71 73 75 74 72 71 68 65 59 52 48 44 40 34 28 23 20 21 27 37 40
133 133 133 133 131 130 130 131 130 129 129 129 128 128 127 127 126 124 123 122 122 121 120 119 120 120 119 118 116 115 115 114 111 106 100 94 90 87 84 80 76 70 64 60 59 61 65 67 67 68 69 71 70 69 68 64 58 52 47 43 39 33 27 24 23 27 34 42 43
134 134 133 131 130 130 130 130 129 129 129 129 129 129 129 128 127 126 125 125 124 123 122 122 123 122 119 116 115 114 114 112 109 105 100 95 91 89 86 83 79 72 65 60 59 60 62 64 64 65 67 69 70 69 67 63 58 53 48 43 38 32 27 25 26 32 40 46 44
135 134 133 131 130 130 129 129 129 129 129 130 130 130 129 129 128 127 127 126 125 124 125 126 125 121 118 116 115 113 110 108 106 103 99 96 93 90 87 84 79 72 66 60 58 58 59 61 63 65 67 70 71 70 67 62 57 53 48 43 38 32 28 26 28 34 42 46 42
135 134 133 131 130 129 129 129 129 130 130 130 131 131 130 129 128 128 127 127 126 127 128 128 125 122 119 117 115 112 110 108 106 102 99 96 93 90 86 82 77 71 64 59 57 56 57 60 62 65 68 71 73 72 68 63 57 52 47 42 38 33 29 27 29 35 41 43 39
136 135 133 131 130 129 129 130 130 131 132 132 132 132 131 129 129 128 128 129 129 129 130 129 126 123 121 119 116 113 110 108 106 103 100 97 95 91 87 82 75 68 62 58 55 55 56 58 61 66 70 73 75 74 70 65 59 53 48 43 39 34 30 29 31 36 41 41 37
136 135 134 132 130 130 131 131 132 133 134 134 133 132 130 129 128 128 129 129 130 131 130 129 127 125 122 120 116 113 111 109 108 106 104 102 99 95 89 82 74 66 60 56 54 53 55 57 62 67 73 76 78 76 72 67 60 54 49 44 40 36 32 30 32 37 40 39 36
137 136 134 132 132 132 132 133 134 135 135 133 132 131 130 129 128 128 128 130 131 131 131 130 128 126 124 122 119 116 114 113 112 111 110 108 105 99 90 81 74 66 60 56 54 53 55 58 63 69 74 77 77 75 72 68 62 55 50 47 43 38 33 31 34 38 40 38 35
138 136 135 134 134 134 135 136 136 136 134 132 130 130 130 130 130 130 131 132 133 132 130 130 129 127 125 123 120 117 115 114 114 115 114 112 107 99 90 81 74 67 61 57 55 55 57 61 66 70 75 76 73 72 71 68 61 55 51 48 44 40 35 33 35 39 40 37 34
140 138 137 136 136 137 137 137 137 136 134 132 131 131 131 131 132 133 135 136 135 132 129 129 128 125 122 119 116 115 114 114 114 114 113 111 105 98 90 83 76 68 62 59 57 57 60 64 68 73 76 78 74 72 71 67 61 56 52 49 46 41 37 34 36 40 40 37 33
142 141 140 139 138 139 139 139 138 136 134 133 133 133 133 133 133 135 138 139 135 132 130 129 126 123 119 117 114 113 113 115 114 113 111 108 103 98 92 86 78 71 64 60 59 60 62 65 69 73 78 79 75 73 71 67 61 58 55 52 47 42 38 35 36 39 40 38 34
144 143 142 141 140 141 141 141 139 137 135 135 135 135 135 135 135 136 139 140 137 133 130 128 125 121 119 118 117 116 116 116 114 112 108 105 102 99 94 88 81 74 67 63 61 61 63 65 67 71 77 79 77 74 70 66 62 59 57 54 50 45 41 37 35 36 37 36 33
146 145 145 143 143 142 142 142 140 138 137 136 136 136 136 136 136 138 141 141 138 135 131 127 124 122 121 121 120 118 117 114 112 109 106 103 101 99 95 90 83 77 70 65 64 63 64 65 65 68 74 78 77 74 70 65 62 60 58 55 51 48 45 40 36 33 31 30 30
147 147 146 145 145 144 143 142 141 140 140 139 138 137 137 137 138 140 142 141 138 134 131 127 125 124 124 124 121 118 115 112 108 106 104 103 102 100 97 92 86 80 74 68 66 66 66 65 63 64 68 74 75 72 69 65 64 62 59 55 51 48 46 43 37 31 25 21 27
148 148 147 146 146 146 145 143 142 141 141 140 139 139 140 141 141 142 141 139 136 133 130 128 127 127 126 124 121 117 113 110 108 107 106 105 103 100 97 93 88 83 76 71 69 68 68 66 63 61 62 67 70 69 67 64 63 62 59 55 51 47 44 41 35 29 25 24 31